Weather History for Lancaster, OH

Change the Weather History Date:

Wednesday, January 2, 2013

  Actual Average Record
Temperature  
Mean Temperature 13 °F -  
Max Temperature 25 °F 35 °F 66 °F (2000)
Min Temperature 1 °F 18 °F -13 °F (1968)
Degree Days  
Heating Degree Days 52    
Moisture  
Dew Point 7 °F    
Average Humidity 80    
Maximum Humidity 92    
Minimum Humidity 53    
Precipitation  
Precipitation 0.00 in - - ()
Sea Level Pressure  
Sea Level Pressure 30.20 in    
Wind  
Wind Speed 0 mph (WSW)    
Max Wind Speed 6 mph    
Max Gust Speed -    
Visibility 6 miles    
Events      
Averages and records for this station are not official NWS values.
T = Trace of Precipitation, MM = Missing Value Source: NWS Daily Summary

Daily Weather History Graph

Daily Weather History Graph

Search for Another Location

Airport:

Trip Planner

Search our weather history database for the weather conditions in past years. The results will help you decide how hot, cold, wet, or windy it might be!

Date:

Astronomy

Jan. 02, 2013 Rise Set
Actual Time 7:51 AM EST 5:17 PM EST
Civil Twilight 7:21 AM EST 5:48 PM EST
Nautical Twilight 6:47 AM EST 6:21 PM EST
Astronomical Twilight 6:15 AM EST 6:54 PM EST
Moon 10:48 PM EST (1/2) 10:33 AM EST (1/2)
Length of Visible Light 10h 26m
Length of Day
9h 26m
Waning Gibbous, 75% of the Moon is Illuminated
Jan 2
Waning Gibbous
Jan 4
Last Quarter
Jan 11
New
Jan 18
First Quarter
Jan 26
Full

Hourly Weather History & Observations

Time (EST) Temp. Windchill Dew Point Humidity Pressure Visibility Wind Dir Wind Speed Gust Speed Precip Events Conditions
12:01 AM 17.6 °F - 10.4 °F 73% 30.13 in 10.0 mi Calm Calm - N/A   Overcast
12:25 AM 15.8 °F - 10.4 °F 79% 30.12 in 10.0 mi Calm Calm - N/A   Scattered Clouds
12:53 AM 15.1 °F - 9.0 °F 77% 30.16 in 10.0 mi Calm Calm - N/A   Clear
1:53 AM 12.9 °F - 9.0 °F 84% 30.17 in 9.0 mi Calm Calm - N/A   Clear
2:53 AM 12.0 °F - 8.1 °F 84% 30.16 in 8.0 mi Calm Calm - N/A   Clear
3:53 AM 9.0 °F - 6.1 °F 88% 30.18 in 6.0 mi Calm Calm - N/A   Clear
4:53 AM 9.0 °F - 7.0 °F 92% 30.18 in 4.0 mi Calm Calm - N/A   Clear
5:53 AM 8.1 °F - 3.9 °F 83% 30.19 in 2.5 mi Calm Calm - N/A   Clear
5:55 AM 8.6 °F - 3.2 °F 79% 30.15 in 1.5 mi Calm Calm - N/A   Clear
6:01 AM 8.6 °F - 3.2 °F 79% 30.15 in 0.8 mi Calm Calm - N/A   Clear
6:05 AM 8.6 °F - 5.0 °F 85% 30.15 in 1.2 mi Calm Calm - N/A   Clear
6:09 AM 6.8 °F - 3.2 °F 85% 30.15 in 3.0 mi Calm Calm - N/A   Clear
6:37 AM 6.8 °F - 1.4 °F 79% 30.16 in 2.0 mi Calm Calm - N/A   Clear
6:40 AM 6.8 °F - 1.4 °F 79% 30.16 in 0.8 mi Calm Calm - N/A   Clear
6:59 AM 3.2 °F - 1.4 °F 92% 30.16 in 2.5 mi Calm Calm - N/A   Clear
7:07 AM 3.2 °F - -0.4 °F 85% 30.17 in 5.0 mi Calm Calm - N/A   Clear
7:53 AM 3.0 °F - -0.9 °F 84% 30.23 in 3.0 mi Calm Calm - N/A   Clear
8:02 AM 1.4 °F - -0.4 °F 92% 30.17 in 2.0 mi Calm Calm - N/A   Clear
8:11 AM 3.2 °F - -0.4 °F 85% 30.17 in 1.2 mi Calm Calm - N/A   Clear
8:18 AM 3.2 °F - -0.4 °F 85% 30.17 in 3.0 mi Calm Calm - N/A   Clear
8:53 AM 7.0 °F - 3.0 °F 84% 30.24 in 5.0 mi Calm Calm - N/A   Clear
9:45 AM 6.8 °F - 5.0 °F 92% 30.21 in 4.0 mi Calm Calm - N/A   Mostly Cloudy
10:53 AM 17.1 °F - 14.0 °F 88% 30.28 in 5.0 mi Calm Calm - N/A   Overcast
11:53 AM 19.9 °F - 15.1 °F 81% 30.27 in 7.0 mi Calm Calm - N/A   Overcast
12:34 PM 21.2 °F 14.9 °F 14.0 °F 74% 30.22 in 9.0 mi West 4.6 mph - N/A   Scattered Clouds
12:53 PM 21.9 °F 15.7 °F 14.0 °F 72% 30.26 in 10.0 mi WSW 4.6 mph - N/A   Clear
1:53 PM 24.1 °F 17.0 °F 12.9 °F 62% 30.25 in 10.0 mi SW 5.8 mph - N/A   Clear
2:53 PM 25.0 °F 19.3 °F 10.0 °F 53% 30.24 in 10.0 mi WNW 4.6 mph - N/A   Clear
3:53 PM 24.1 °F 17.0 °F 10.9 °F 57% 30.26 in 10.0 mi WSW 5.8 mph - N/A   Clear
4:53 PM 21.9 °F - 10.9 °F 63% 30.25 in 10.0 mi Calm Calm - N/A   Clear
6:53 PM 12.9 °F - 7.0 °F 77% 30.27 in 10.0 mi Calm Calm - N/A   Clear
7:53 PM 12.0 °F - 7.0 °F 80% 30.28 in 9.0 mi Calm Calm - N/A   Clear
8:53 PM 15.1 °F - 10.0 °F 80% 30.28 in 7.0 mi Calm Calm - N/A   Clear
9:53 PM 12.0 °F - 8.1 °F 84% 30.30 in 7.0 mi Calm Calm - N/A   Clear
10:53 PM 10.9 °F - 8.1 °F 88% 30.27 in 7.0 mi Calm Calm - N/A   Clear